Location: Bern
(46.9451°N, 7.4426°E)
Time: 02:32:30
(UTC+01:00)

ISS - Visible Passes

Search period start: 08 December 2021 00:00
Search period end: 18 December 2021 00:00
Orbit: 417 x 422 km, 51.6° (Epoch: 07 December)

Date Brightness Start Highest point End Pass type
(mag) Time Alt. Az. Time Alt. Az. Time Alt. Az.
08 Dec -1.3 18:03:58 10° W 18:06:47 24° SW 18:09:35 10° SSE visible
09 Dec -2.0 17:16:21 10° WNW 17:19:30 37° SW 17:22:40 10° SSE visible
11 Dec -0.5 17:19:04 10° W 17:21:12 16° SW 17:23:21 10° S visible
